Regional Weather Roundup
Issued by NWS Jackson, KY

Home | Current Version | Previous Version | Graphics & Text | Print | Product List | Glossary On
Versions: 1 2 3 4 5 6 7 8 9 10 11 12 13 14 15 16 17 18 19 20 21 22 23 24 25 26 27 28 29 30 31 32 33 34 35 36 37 38 39 40 41 42 43 44 45 46 47 48 49 50
000
ASUS43 KJKL 241510
RWRJKL

EAST KENTUCKY HOURLY WEATHER ROUNDUP
NATIONAL WEATHER SERVICE JACKSON KY
1100 AM EDT MON JUL 24 2017

NOTE: "FAIR" INDICATES FEW OR NO CLOUDS BELOW 12,000 FEET WITH
NO SIGNIFICANT WEATHER AND/OR OBSTRUCTIONS TO VISIBILITY.

* THESE REPORTS ARE NOT UNDER NWS QUALITY CONTROL AND MAY NOT
  REPORT WEATHER SUCH AS PRECIPITATION AND FOG.

KYZ079-080-083-085-087-088-110-112-115-119-120-241600
...EASTERN KENTUCKY...

CITY           SKY/WX    TMP DP  RH WIND       PRES   REMARKS
JACKSON        CLOUDY    79  72  79 CALM      29.97F
LONDON         MOSUNNY   81  70  69 W6        29.99S
SOMERSET*      CLOUDY    79  68  69 CALM      29.98S
MONTICELLO*    MOSUNNY   80  73  79 W10       30.00S
WILLIAMSBURG*  MOSUNNY   77  73  88 SW3       30.00S
MIDDLESBORO*   MOSUNNY   76  71  87 CALM      30.00F
PIKE CO APT*   CLOUDY    77  75  93 CALM      29.98S
BIG SANDY APT* PTSUNNY   79  73  80 W3        29.97S
MOREHEAD APT*  PTSUNNY   81  72  74 VRB5      29.95F
ASHLAND*       MOSUNNY   79  79 100 W8        29.88S
$$

KYZ035-036-041-042-044-050-067-078-099-241600
...CENTRAL KENTUCKY...

CITY           SKY/WX    TMP DP  RH WIND       PRES   REMARKS
MT STERLING*   MOSUNNY   81  72  74 W6        29.96S
FLEMING/MASON* SUNNY     80  70  71 NW8G16    29.94S
DANVILLE*      CLOUDY    82  70  65 NW3       29.97S
LEXINGTON      CLOUDY    82  71  69 W12       29.95S
FRANKFORT      CLOUDY    82  71  69 W5        29.94R
LOUISVILLE     MOSUNNY   85  72  65 NW7       29.93R HX  91
LEBANON*         N/A     81  72  74 S7        29.96S
GLASGOW*       PTSUNNY   82  73  72 SW7       29.97S
BOWLING GREEN  CLOUDY    82  74  76 CALM      29.96S
$$

KYZ091>093-OHZ055-061-077-WVZ005-015-034-035-042-241600
...SOUTHERN OHIO/WEST VIRGINIA...

CITY           SKY/WX    TMP DP  RH WIND       PRES   REMARKS
COVINGTON      MOSUNNY   80  72  76 NW7       29.93S
COLUMBUS       MOSUNNY   77  70  79 N9        29.90R
DAYTON         MOSUNNY   76  67  73 NW14      29.95R
WILMINGTON     PTSUNNY   76  70  82 NW7       29.93R
HUNTINGTON     MOSUNNY   82  71  69 SW8       29.92R
CHARLESTON     PTSUNNY   82  69  64 SW8       29.92S
PINEVILLE*     CLOUDY    78  69  73 MISG      30.03S
BECKLEY        CLOUDY    76  63  64 NW8       30.01R
BLUEFIELD      MOSUNNY   72  64  76 W8        30.05R
LOGAN CO APT*  PTSUNNY   77  70  78 CALM      29.97S
$$

VAZ002-007-008-TNZ017-027-036-066-071-241600
...SOUTHWEST VIRGINIA/EAST TENNESSEE...

CITY           SKY/WX    TMP DP  RH WIND       PRES   REMARKS
WISE*          CLOUDY    73  72  94 SW7       30.06S
JONESVILLE*    PTSUNNY   75  70  83 CALM      30.03S
ABINGDON*      CLOUDY    76  71  82 SW7       30.03S
BRISTOL        PTSUNNY   75  68  78 SW6       30.02R
MORRISTOWN*    CLOUDY    75  70  83 W3        30.01R
SEVIERVILLE*   MOSUNNY   81  72  74 W3        29.99S
KNOXVILLE      PTSUNNY   79  70  74 VRB5      30.00R
LAFOLLETTE*    MOSUNNY   79  72  78 CALM      30.03S
OAK RIDGE      MOSUNNY   80  69  69 W5        30.01S
CROSSVILLE     SUNNY     76  68  76 W3        30.05S
NASHVILLE      PTSUNNY   83  69  62 CALM      29.98S
$$

...KEY TO REMARKS...
VSB - VISIBILITY IN MILES
WCI - WIND CHILL INDEX
HX  - HEAT INDEX

$$



USA.gov is the U.S. government's official web portal to all federal, state and local government web resources and services.